Location: Cossonay
(46.5833°N, 6.4167°E)
Time: 11:08:15
(UTC+00:00)

STARLINK-1257 - Pass Details

Date: 09 October 2020
Orbit: 549 x 550 km, 53.0° (Epoch: 21 October)

Event Time Altitude Azimuth Distance (km) Brightness Sun altitude
Exits shadow 02:43:43 26° 63° (ENE) 1,105 5.7 -31.0°
Drops below altitude 10° 02:45:35 10° 61° (ENE) 1,825 7.2 -30.7°
Sets 02:47:50 0° 61° (ENE) 2,721 8.3 -30.4°
